Weather History for Langara Island, BC

Change the Weather History Date:

Monday, January 14, 2013

  Actual Average Record
Temperature  
Mean Temperature 42 °F -  
Max Temperature 45 °F - - ()
Min Temperature 39 °F - - ()
Degree Days  
Heating Degree Days 23    
Moisture  
Dew Point 42 °F    
Average Humidity 98    
Maximum Humidity 99    
Minimum Humidity 96    
Precipitation  
Precipitation 0.00 in - - ()
Sea Level Pressure  
Sea Level Pressure 30.43 in    
Wind  
Wind Speed 15 mph ()    
Max Wind Speed 23 mph    
Max Gust Speed 36 mph    
T = Trace of Precipitation, MM = Missing Value Source: Averaged Metar Reports

Daily Weather History Graph

Daily Weather History Graph

Search for Another Location

Airport:

Trip Planner

Search our weather history database for the weather conditions in past years. The results will help you decide how hot, cold, wet, or windy it might be!

Date:

Astronomy

Jan. 14, 2013 Rise Set
Actual Time 9:04 AM PST 4:58 PM PST
Civil Twilight 8:22 AM PST 5:40 PM PST
Nautical Twilight 7:37 AM PST 6:25 PM PST
Astronomical Twilight 6:54 AM PST 7:08 PM PST
Moon 10:02 AM PST (1/14) 9:36 PM PST (1/14)
Length of Visible Light 9h 18m
Length of Day
7h 54m
Waxing Crescent, 12% of the Moon is Illuminated
Jan 14
Waxing Crescent
Jan 18
First Quarter
Jan 26
Full
Feb 3
Last Quarter
Feb 9
New

Hourly Weather History & Observations

Time (PST) Temp. Windchill Dew Point Humidity Pressure Visibility Wind Dir Wind Speed Gust Speed Precip Events Conditions
12:00 AM 44.4 °F 38.2 °F 43.7 °F 97% 30.39 in - WSW 12.7 mph 19.6 mph N/A   Unknown
1:00 AM 44.6 °F 38.1 °F 43.9 °F 97% 30.40 in - West 13.8 mph - N/A   Unknown
2:00 AM 44.8 °F 37.4 °F 44.1 °F 97% 30.40 in - WNW 17.3 mph - N/A   Unknown
3:00 AM 44.8 °F 37.1 °F 44.1 °F 97% 30.41 in - West 18.4 mph - N/A   Unknown
4:00 AM 44 °F - 44 °F 97% 30.40 in - West 20.7 mph - -  
4:00 AM 44.2 °F 35.9 °F 43.5 °F 97% 30.40 in - West 20.7 mph - N/A   Unknown
5:00 AM 43.5 °F 34.5 °F 43.0 °F 98% 30.40 in - West 23.0 mph - N/A   Unknown
6:00 AM 43.7 °F 35.2 °F 43.2 °F 98% 30.40 in - West 20.7 mph - N/A   Unknown
7:00 AM 43.2 °F 34.5 °F 42.6 °F 98% 30.42 in - West 20.7 mph 27.6 mph N/A   Unknown
8:00 AM 43.3 °F 35.2 °F 42.8 °F 98% 30.42 in - West 18.4 mph - N/A   Unknown
9:00 AM 43.3 °F 35.0 °F 42.8 °F 98% 30.43 in - West 19.6 mph 26.5 mph N/A   Unknown
10:00 AM 43 °F - 42 °F 97% 30.42 in - West 21.9 mph - -  
10:00 AM 43.0 °F 34.0 °F 42.4 °F 98% 30.42 in - West 21.9 mph - N/A   Unknown
11:00 AM 42.3 °F 33.6 °F 41.7 °F 98% 30.43 in - West 19.6 mph 26.5 mph N/A   Unknown
12:00 PM 42.1 °F 34.2 °F 41.5 °F 98% 30.43 in - West 16.1 mph 26.5 mph N/A   Unknown
1:00 PM 42.1 °F 34.9 °F 41.5 °F 98% 30.43 in - WSW 13.8 mph 25.3 mph N/A   Unknown
2:00 PM 41.5 °F 33.8 °F 41.0 °F 98% 30.43 in - WSW 15.0 mph 32.2 mph N/A   Unknown
3:00 PM 41.2 °F 34.1 °F 40.8 °F 99% 30.44 in - WSW 12.7 mph 25.3 mph N/A   Unknown
4:00 PM 42 °F - 41 °F 96% 30.44 in - WSW 13.8 mph - -  
4:00 PM 41.5 °F 34.2 °F 41.2 °F 99% 30.44 in - WSW 13.8 mph 21.9 mph N/A   Unknown
5:00 PM 40.6 °F 32.0 °F 40.3 °F 99% 30.43 in - WSW 17.3 mph 32.2 mph N/A   Unknown
6:00 PM 40.1 °F 31.3 °F 39.7 °F 99% 30.45 in - West 17.3 mph 29.9 mph N/A   Unknown
7:00 PM 39.6 °F 30.3 °F 39.2 °F 99% 30.46 in - West 18.4 mph 35.7 mph N/A   Unknown
8:00 PM 39.7 °F 30.9 °F 39.4 °F 99% 30.45 in - West 17.3 mph 28.8 mph N/A   Unknown
9:00 PM 39.7 °F 31.2 °F 39.4 °F 99% 30.44 in - WSW 16.1 mph 31.1 mph N/A   Unknown
10:00 PM 40 °F - 39 °F 96% 30.45 in - WSW 16.1 mph - -  
10:00 PM 39.7 °F 31.2 °F 39.2 °F 98% 30.45 in - WSW 16.1 mph 27.6 mph N/A   Unknown
11:00 PM 40.1 °F 30.7 °F 39.6 °F 98% 30.44 in - West 19.6 mph 32.2 mph N/A   Unknown